����������;��������(kWh)
2018-08-20 00:00;76,4
2018-08-20 00:15;77,25
2018-08-20 00:30;77
2018-08-20 00:45;77,35
2018-08-20 01:00;75,15
2018-08-20 01:15;77,35
2018-08-20 01:30;75,7
2018-08-20 01:45;75,95
2018-08-20 02:00;75,6
2018-08-20 02:15;76,6
2018-08-20 02:30;75,7
2018-08-20 02:45;78
2018-08-20 03:00;76,05
2018-08-20 03:15;76,8
2018-08-20 03:30;76,95
2018-08-20 03:45;78,75
2018-08-20 04:00;77,5
2018-08-20 04:15;79
2018-08-20 04:30;78,3
2018-08-20 04:45;79,75
2018-08-20 05:00;77,95
2018-08-20 05:15;80,2
2018-08-20 05:30;77,3
2018-08-20 05:45;78
2018-08-20 06:00;77,6
2018-08-20 06:15;74,2
2018-08-20 06:30;74,65
2018-08-20 06:45;73
2018-08-20 07:00;72,45
2018-08-20 07:15;73,7
2018-08-20 07:30;129,15
2018-08-20 07:45;116,8
2018-08-20 08:00;92,3
2018-08-20 08:15;102,25
2018-08-20 08:30;103,55
2018-08-20 08:45;125,25
2018-08-20 09:00;150,5
2018-08-20 09:15;164,15
2018-08-20 09:30;165,55
2018-08-20 09:45;168,55
2018-08-20 10:00;165,95
2018-08-20 10:15;175,75
2018-08-20 10:30;184,4
2018-08-20 10:45;179,9
2018-08-20 11:00;179,35
2018-08-20 11:15;192,8
2018-08-20 11:30;192,1
2018-08-20 11:45;200
2018-08-20 12:00;194,7
2018-08-20 12:15;187,9
2018-08-20 12:30;195
2018-08-20 12:45;195,05
2018-08-20 13:00;195,95
2018-08-20 13:15;198,4
2018-08-20 13:30;194,9
2018-08-20 13:45;192,05
2018-08-20 14:00;186,95
2018-08-20 14:15;190,05
2018-08-20 14:30;187,9
2018-08-20 14:45;180,3
2018-08-20 15:00;182,7
2018-08-20 15:15;169,65
2018-08-20 15:30;162,1
2018-08-20 15:45;160,5
2018-08-20 16:00;154,05
2018-08-20 16:15;142,05
2018-08-20 16:30;147,45
2018-08-20 16:45;140,8
2018-08-20 17:00;136,05
2018-08-20 17:15;135,4
2018-08-20 17:30;133
2018-08-20 17:45;137,65
2018-08-20 18:00;131,85
2018-08-20 18:15;127
2018-08-20 18:30;136,7
2018-08-20 18:45;129,3
2018-08-20 19:00;123,9
2018-08-20 19:15;124,95
2018-08-20 19:30;124,1
2018-08-20 19:45;124,15
2018-08-20 20:00;118,25
2018-08-20 20:15;110,95
2018-08-20 20:30;111,05
2018-08-20 20:45;114
2018-08-20 21:00;108,35
2018-08-20 21:15;99,9
2018-08-20 21:30;100,75
2018-08-20 21:45;99,75
2018-08-20 22:00;97,4
2018-08-20 22:15;93,25
2018-08-20 22:30;91,85
2018-08-20 22:45;90,1
2018-08-20 23:00;93
2018-08-20 23:15;89,2
2018-08-20 23:30;87,55
2018-08-20 23:45;89,75
2018-08-21 00:00;82,55
2018-08-21 00:15;80,05
2018-08-21 00:30;81,25
2018-08-21 00:45;79,4
2018-08-21 01:00;80,55
2018-08-21 01:15;81,5
2018-08-21 01:30;79,35
2018-08-21 01:45;79,95
2018-08-21 02:00;78,3
2018-08-21 02:15;79,05
2018-08-21 02:30;79,35
2018-08-21 02:45;78,9
2018-08-21 03:00;77,85
2018-08-21 03:15;79,8
2018-08-21 03:30;78,95
2018-08-21 03:45;80,5
2018-08-21 04:00;81,25
2018-08-21 04:15;80,5
2018-08-21 04:30;81,35
2018-08-21 04:45;90,45
2018-08-21 05:00;91,95
2018-08-21 05:15;91,65
2018-08-21 05:30;93,45
2018-08-21 05:45;92,2
2018-08-21 06:00;90,65
2018-08-21 06:15;90,75
2018-08-21 06:30;86,75
2018-08-21 06:45;109,7
2018-08-21 07:00;117,3
2018-08-21 07:15;107,65
2018-08-21 07:30;158,1
2018-08-21 07:45;114,4
2018-08-21 08:00;115,75
2018-08-21 08:15;119,8
2018-08-21 08:30;125
2018-08-21 08:45;123,95
2018-08-21 09:00;133,25
2018-08-21 09:15;143
2018-08-21 09:30;154,25
2018-08-21 09:45;158,5
2018-08-21 10:00;163,7
2018-08-21 10:15;172,9
2018-08-21 10:30;175,45
2018-08-21 10:45;172,9
2018-08-21 11:00;182,25
2018-08-21 11:15;183,1
2018-08-21 11:30;179,95
2018-08-21 11:45;179
2018-08-21 12:00;182,35
2018-08-21 12:15;196,25
2018-08-21 12:30;197,1
2018-08-21 12:45;196,1
2018-08-21 13:00;193,45
2018-08-21 13:15;197,15
2018-08-21 13:30;200,3
2018-08-21 13:45;198,35
2018-08-21 14:00;193,4
2018-08-21 14:15;187,6
2018-08-21 14:30;193,5
2018-08-21 14:45;185,95
2018-08-21 15:00;179,55
2018-08-21 15:15;169,7
2018-08-21 15:30;163,15
2018-08-21 15:45;168,8
2018-08-21 16:00;155,15
2018-08-21 16:15;144,15
2018-08-21 16:30;151,95
2018-08-21 16:45;143,1
2018-08-21 17:00;140,45
2018-08-21 17:15;128,55
2018-08-21 17:30;133,1
2018-08-21 17:45;131,35
2018-08-21 18:00;114,4
2018-08-21 18:15;120,25
2018-08-21 18:30;118,35
2018-08-21 18:45;112,15
2018-08-21 19:00;117
2018-08-21 19:15;110
2018-08-21 19:30;109,1
2018-08-21 19:45;111,45
2018-08-21 20:00;108,1
2018-08-21 20:15;111,5
2018-08-21 20:30;112,75
2018-08-21 20:45;113,05
2018-08-21 21:00;110,5
2018-08-21 21:15;109,15
2018-08-21 21:30;108
2018-08-21 21:45;107,25
2018-08-21 22:00;104,45
2018-08-21 22:15;102,2
2018-08-21 22:30;102,4
2018-08-21 22:45;98,9
2018-08-21 23:00;106,05
2018-08-21 23:15;97,05
2018-08-21 23:30;98,4
2018-08-21 23:45;98,1
2018-08-22 00:00;89,15
2018-08-22 00:15;85,05
2018-08-22 00:30;78,75
2018-08-22 00:45;78,2
2018-08-22 01:00;79,95
2018-08-22 01:15;78,8
2018-08-22 01:30;85,65
2018-08-22 01:45;88,65
2018-08-22 02:00;87,85
2018-08-22 02:15;87,05
2018-08-22 02:30;89,25
2018-08-22 02:45;87
2018-08-22 03:00;88,05
2018-08-22 03:15;88,75
2018-08-22 03:30;88
2018-08-22 03:45;87,45
2018-08-22 04:00;86,55
2018-08-22 04:15;84,75
2018-08-22 04:30;86,15
2018-08-22 04:45;86,85
2018-08-22 05:00;88,35
2018-08-22 05:15;89,55
2018-08-22 05:30;87,6
2018-08-22 05:45;89,4
2018-08-22 06:00;90,5
2018-08-22 06:15;86,65
2018-08-22 06:30;86,9
2018-08-22 06:45;84,6
2018-08-22 07:00;83,75
2018-08-22 07:15;97,75
2018-08-22 07:30;161
2018-08-22 07:45;113,7
2018-08-22 08:00;109,1
2018-08-22 08:15;123,15
2018-08-22 08:30;124,05
2018-08-22 08:45;123,65
2018-08-22 09:00;144,85
2018-08-22 09:15;153,35
2018-08-22 09:30;157,1
2018-08-22 09:45;162,1
2018-08-22 10:00;168,55
2018-08-22 10:15;178,3
2018-08-22 10:30;175,55
2018-08-22 10:45;168,9
2018-08-22 11:00;178,5
2018-08-22 11:15;180,15
2018-08-22 11:30;188,45
2018-08-22 11:45;189,9
2018-08-22 12:00;193,45
2018-08-22 12:15;187,6
2018-08-22 12:30;193,9
2018-08-22 12:45;198,8
2018-08-22 13:00;203,05
2018-08-22 13:15;201
2018-08-22 13:30;193,6
2018-08-22 13:45;200,85
2018-08-22 14:00;185,9
2018-08-22 14:15;194,3
2018-08-22 14:30;186,15
2018-08-22 14:45;179,1
2018-08-22 15:00;187,7
2018-08-22 15:15;162
2018-08-22 15:30;160,65
2018-08-22 15:45;151,25
2018-08-22 16:00;144,2
2018-08-22 16:15;144,8
2018-08-22 16:30;138,6
2018-08-22 16:45;136,65
2018-08-22 17:00;132,65
2018-08-22 17:15;127,9
2018-08-22 17:30;124,35
2018-08-22 17:45;128,55
2018-08-22 18:00;126,9
2018-08-22 18:15;125,1
2018-08-22 18:30;124,85
2018-08-22 18:45;124,4
2018-08-22 19:00;131,95
2018-08-22 19:15;110,95
2018-08-22 19:30;111
2018-08-22 19:45;110,1
2018-08-22 20:00;104,6
2018-08-22 20:15;106
2018-08-22 20:30;105,75
2018-08-22 20:45;108,75
2018-08-22 21:00;99,85
2018-08-22 21:15;95,9
2018-08-22 21:30;97,7
2018-08-22 21:45;94,2
2018-08-22 22:00;95,6
2018-08-22 22:15;91,15
2018-08-22 22:30;90,3
2018-08-22 22:45;88,35
2018-08-22 23:00;90,95
2018-08-22 23:15;86,65
2018-08-22 23:30;87,55
2018-08-22 23:45;86,3
2018-08-23 00:00;81,55
2018-08-23 00:15;80,4
2018-08-23 00:30;80,05
2018-08-23 00:45;81,8
2018-08-23 01:00;79,45
2018-08-23 01:15;80,25
2018-08-23 01:30;80,7
2018-08-23 01:45;80,45
2018-08-23 02:00;79,7
2018-08-23 02:15;85,7
2018-08-23 02:30;89,8
2018-08-23 02:45;89,9
2018-08-23 03:00;90,55
2018-08-23 03:15;89,2
2018-08-23 03:30;90,3
2018-08-23 03:45;92,4
2018-08-23 04:00;90,45
2018-08-23 04:15;91,4
2018-08-23 04:30;92
2018-08-23 04:45;91,6
2018-08-23 05:00;92,7
2018-08-23 05:15;91,7
2018-08-23 05:30;91,2
2018-08-23 05:45;93
2018-08-23 06:00;91,8
2018-08-23 06:15;88,85
2018-08-23 06:30;88,85
2018-08-23 06:45;87,1
2018-08-23 07:00;87,95
2018-08-23 07:15;87,7
2018-08-23 07:30;141,75
2018-08-23 07:45;123,75
2018-08-23 08:00;131,95
2018-08-23 08:15;143,2
2018-08-23 08:30;135,3
2018-08-23 08:45;134,8
2018-08-23 09:00;139,2
2018-08-23 09:15;151,65
2018-08-23 09:30;152,95
2018-08-23 09:45;160,3
2018-08-23 10:00;167,6
2018-08-23 10:15;170,6
2018-08-23 10:30;176,15
2018-08-23 10:45;192,2
2018-08-23 11:00;190,15
2018-08-23 11:15;202,6
2018-08-23 11:30;207,5
2018-08-23 11:45;203,2
2018-08-23 12:00;193,1
2018-08-23 12:15;192,95
2018-08-23 12:30;197,5
2018-08-23 12:45;197,7
2018-08-23 13:00;199,6
2018-08-23 13:15;196,45
2018-08-23 13:30;197,95
2018-08-23 13:45;194,1
2018-08-23 14:00;199,15
2018-08-23 14:15;189
2018-08-23 14:30;186,5
2018-08-23 14:45;180,6
2018-08-23 15:00;177,55
2018-08-23 15:15;170,15
2018-08-23 15:30;202,5
2018-08-23 15:45;194,75
2018-08-23 16:00;178,7
2018-08-23 16:15;168,6
2018-08-23 16:30;153,85
2018-08-23 16:45;164,9
2018-08-23 17:00;153,4
2018-08-23 17:15;152,7
2018-08-23 17:30;137,9
2018-08-23 17:45;142,4
2018-08-23 18:00;138,15
2018-08-23 18:15;126,7
2018-08-23 18:30;125,05
2018-08-23 18:45;127,9
2018-08-23 19:00;126,1
2018-08-23 19:15;106,15
2018-08-23 19:30;109,9
2018-08-23 19:45;105,85
2018-08-23 20:00;106,55
2018-08-23 20:15;107,4
2018-08-23 20:30;110,7
2018-08-23 20:45;108,65
2018-08-23 21:00;108,1
2018-08-23 21:15;105,4
2018-08-23 21:30;95,25
2018-08-23 21:45;98,7
2018-08-23 22:00;97,05
2018-08-23 22:15;92,05
2018-08-23 22:30;91,75
2018-08-23 22:45;90,2
2018-08-23 23:00;94,9
2018-08-23 23:15;93,5
2018-08-23 23:30;92,35
2018-08-23 23:45;92
2018-08-24 00:00;85,5
2018-08-24 00:15;85,7
2018-08-24 00:30;84,85
2018-08-24 00:45;84,6
2018-08-24 01:00;82,8
2018-08-24 01:15;85,15
2018-08-24 01:30;83,55
2018-08-24 01:45;84,05
2018-08-24 02:00;83,95
2018-08-24 02:15;83,65
2018-08-24 02:30;86,7
2018-08-24 02:45;95
2018-08-24 03:00;94,75
2018-08-24 03:15;94,15
2018-08-24 03:30;95,3
2018-08-24 03:45;95,55
2018-08-24 04:00;95,6
2018-08-24 04:15;95,7
2018-08-24 04:30;96,25
2018-08-24 04:45;107,3
2018-08-24 05:00;125,05
2018-08-24 05:15;118,9
2018-08-24 05:30;111,85
2018-08-24 05:45;108,55
2018-08-24 06:00;105,7
2018-08-24 06:15;103,3
2018-08-24 06:30;102,35
2018-08-24 06:45;100,4
2018-08-24 07:00;103,15
2018-08-24 07:15;100,15
2018-08-24 07:30;157,85
2018-08-24 07:45;114,5
2018-08-24 08:00;113,8
2018-08-24 08:15;128,65
2018-08-24 08:30;128,05
2018-08-24 08:45;130,05
2018-08-24 09:00;146
2018-08-24 09:15;159,4
2018-08-24 09:30;172,3
2018-08-24 09:45;177,85
2018-08-24 10:00;181,2
2018-08-24 10:15;186,15
2018-08-24 10:30;191,55
2018-08-24 10:45;199,4
2018-08-24 11:00;196
2018-08-24 11:15;201,55
2018-08-24 11:30;197,5
2018-08-24 11:45;202,05
2018-08-24 12:00;208,95
2018-08-24 12:15;221,15
2018-08-24 12:30;215,55
2018-08-24 12:45;213,1
2018-08-24 13:00;218,5
2018-08-24 13:15;220,2
2018-08-24 13:30;217,55
2018-08-24 13:45;213,7
2018-08-24 14:00;202,75
2018-08-24 14:15;200,55
2018-08-24 14:30;203,2
2018-08-24 14:45;203,8
2018-08-24 15:00;194,85
2018-08-24 15:15;187,4
2018-08-24 15:30;180,65
2018-08-24 15:45;179,05
2018-08-24 16:00;170,2
2018-08-24 16:15;159,8
2018-08-24 16:30;168,1
2018-08-24 16:45;158,5
2018-08-24 17:00;153,3
2018-08-24 17:15;158,95
2018-08-24 17:30;154,05
2018-08-24 17:45;151,6
2018-08-24 18:00;147,75
2018-08-24 18:15;144,6
2018-08-24 18:30;130,85
2018-08-24 18:45;131,55
2018-08-24 19:00;127,25
2018-08-24 19:15;117,25
2018-08-24 19:30;106,65
2018-08-24 19:45;109,65
2018-08-24 20:00;106
2018-08-24 20:15;109,35
2018-08-24 20:30;110,2
2018-08-24 20:45;109,3
2018-08-24 21:00;108,75
2018-08-24 21:15;108,55
2018-08-24 21:30;106,45
2018-08-24 21:45;105,05
2018-08-24 22:00;104,25
2018-08-24 22:15;103,8
2018-08-24 22:30;100,9
2018-08-24 22:45;100,65
2018-08-24 23:00;106,45
2018-08-24 23:15;100,1
2018-08-24 23:30;99,9
2018-08-24 23:45;102,55
2018-08-25 00:00;93,5
2018-08-25 00:15;94,65
2018-08-25 00:30;93,65
2018-08-25 00:45;92,15
2018-08-25 01:00;94,1
2018-08-25 01:15;93,25
2018-08-25 01:30;90,95
2018-08-25 01:45;94,2
2018-08-25 02:00;92,85
2018-08-25 02:15;91,7
2018-08-25 02:30;90,8
2018-08-25 02:45;89,65
2018-08-25 03:00;90,35
2018-08-25 03:15;90,45
2018-08-25 03:30;89,7
2018-08-25 03:45;93,8
2018-08-25 04:00;92,4
2018-08-25 04:15;91,4
2018-08-25 04:30;95,3
2018-08-25 04:45;92,75
2018-08-25 05:00;93,2
2018-08-25 05:15;93,05
2018-08-25 05:30;91,65
2018-08-25 05:45;94,15
2018-08-25 06:00;91,95
2018-08-25 06:15;89,45
2018-08-25 06:30;89,35
2018-08-25 06:45;87,9
2018-08-25 07:00;85,45
2018-08-25 07:15;83,9
2018-08-25 07:30;81,85
2018-08-25 07:45;83,9
2018-08-25 08:00;83,55
2018-08-25 08:15;82,95
2018-08-25 08:30;85,35
2018-08-25 08:45;84,25
2018-08-25 09:00;90,9
2018-08-25 09:15;90,45
2018-08-25 09:30;90,55
2018-08-25 09:45;89,95
2018-08-25 10:00;92,6
2018-08-25 10:15;92,4
2018-08-25 10:30;92,2
2018-08-25 10:45;93,35
2018-08-25 11:00;92,95
2018-08-25 11:15;94,45
2018-08-25 11:30;96,3
2018-08-25 11:45;93,65
2018-08-25 12:00;97,75
2018-08-25 12:15;95,45
2018-08-25 12:30;97,2
2018-08-25 12:45;96,65
2018-08-25 13:00;99,6
2018-08-25 13:15;98,9
2018-08-25 13:30;98,95
2018-08-25 13:45;102,3
2018-08-25 14:00;100,75
2018-08-25 14:15;99,75
2018-08-25 14:30;101,15
2018-08-25 14:45;97,95
2018-08-25 15:00;98,9
2018-08-25 15:15;98,85
2018-08-25 15:30;98,5
2018-08-25 15:45;99,45
2018-08-25 16:00;99
2018-08-25 16:15;98,6
2018-08-25 16:30;100,45
2018-08-25 16:45;97,15
2018-08-25 17:00;98,3
2018-08-25 17:15;97,05
2018-08-25 17:30;99,2
2018-08-25 17:45;99,55
2018-08-25 18:00;101
2018-08-25 18:15;99,7
2018-08-25 18:30;98,8
2018-08-25 18:45;99,4
2018-08-25 19:00;99,3
2018-08-25 19:15;100,6
2018-08-25 19:30;99,1
2018-08-25 19:45;99,55
2018-08-25 20:00;102,65
2018-08-25 20:15;102
2018-08-25 20:30;102,8
2018-08-25 20:45;101,25
2018-08-25 21:00;103,55
2018-08-25 21:15;101
2018-08-25 21:30;103,15
2018-08-25 21:45;101,8
2018-08-25 22:00;101,1
2018-08-25 22:15;99,55
2018-08-25 22:30;98,9
2018-08-25 22:45;100,5
2018-08-25 23:00;104,3
2018-08-25 23:15;100,4
2018-08-25 23:30;101,1
2018-08-25 23:45;102,85
2018-08-26 00:00;94,05
2018-08-26 00:15;93,65
2018-08-26 00:30;92,9
2018-08-26 00:45;92,95
2018-08-26 01:00;94,9
2018-08-26 01:15;91,75
2018-08-26 01:30;94,05
2018-08-26 01:45;92,3
2018-08-26 02:00;93,9
2018-08-26 02:15;93,1
2018-08-26 02:30;90,8
2018-08-26 02:45;92,2
2018-08-26 03:00;90,65
2018-08-26 03:15;90,75
2018-08-26 03:30;91,5
2018-08-26 03:45;91,7
2018-08-26 04:00;92,85
2018-08-26 04:15;93,45
2018-08-26 04:30;92,9
2018-08-26 04:45;93,05
2018-08-26 05:00;92,7
2018-08-26 05:15;92,35
2018-08-26 05:30;92,95
2018-08-26 05:45;91,75
2018-08-26 06:00;92,7
2018-08-26 06:15;90,6
2018-08-26 06:30;89,4
2018-08-26 06:45;89
2018-08-26 07:00;86,3
2018-08-26 07:15;84,35
2018-08-26 07:30;81,65
2018-08-26 07:45;82,9
2018-08-26 08:00;82,95
2018-08-26 08:15;85,15
2018-08-26 08:30;83,8
2018-08-26 08:45;88,4
2018-08-26 09:00;87,3
2018-08-26 09:15;91,35
2018-08-26 09:30;89,9
2018-08-26 09:45;89,8
2018-08-26 10:00;91,85
2018-08-26 10:15;93,3
2018-08-26 10:30;90,75
2018-08-26 10:45;89,05
2018-08-26 11:00;92,15
2018-08-26 11:15;93,95
2018-08-26 11:30;96,9
2018-08-26 11:45;97,9
2018-08-26 12:00;98,1
2018-08-26 12:15;99,2
2018-08-26 12:30;96,75
2018-08-26 12:45;99,8
2018-08-26 13:00;98,25
2018-08-26 13:15;97,5
2018-08-26 13:30;98,7
2018-08-26 13:45;96,85
2018-08-26 14:00;98,2
2018-08-26 14:15;96,8
2018-08-26 14:30;98,55
2018-08-26 14:45;97,5
2018-08-26 15:00;99,1
2018-08-26 15:15;98,8
2018-08-26 15:30;100,25
2018-08-26 15:45;101,05
2018-08-26 16:00;100
2018-08-26 16:15;100,8
2018-08-26 16:30;98,95
2018-08-26 16:45;99,95
2018-08-26 17:00;98,95
2018-08-26 17:15;99,75
2018-08-26 17:30;98,35
2018-08-26 17:45;101,85
2018-08-26 18:00;100,6
2018-08-26 18:15;100,75
2018-08-26 18:30;100
2018-08-26 18:45;99,1
2018-08-26 19:00;100,05
2018-08-26 19:15;99,4
2018-08-26 19:30;102
2018-08-26 19:45;104,15
2018-08-26 20:00;106
2018-08-26 20:15;109,7
2018-08-26 20:30;110,85
2018-08-26 20:45;110,05
2018-08-26 21:00;108,5
2018-08-26 21:15;108,35
2018-08-26 21:30;107,55
2018-08-26 21:45;108
2018-08-26 22:00;105,15
2018-08-26 22:15;103,9
2018-08-26 22:30;102,4
2018-08-26 22:45;103,1
2018-08-26 23:00;109
2018-08-26 23:15;101,55
2018-08-26 23:30;103,8
2018-08-26 23:45;105,5

